2019-071K (45120 NORAD) Tracking and Keplerian Element Data

This shows tracking and keplerian element data for the satellite.

Feedback or suggestion? Click here.




ElementValue
Catalog45120
Name2019-071K
Epoch Orbit2412
Epoch Day189.69923036
Epoch Year2020
RAAN265.1366
Inclination51.6423
Eccentricity0.0012164
Argument of Perigee125.9719
Mean Anonmoly234.2393
Mean Motion15.34134075
Decay Rate2.292E-05
L11 45120U 19071K 20189.69923036 .00002292 00000-0 79580-4 0 9996
L22 45120 51.6423 265.1366 0012164 125.9719 234.2393 15.34134075 24120

Live tracking and technical data element details for 2019-071K (NORAD 45120). 2019-071K can be tracked NOW for your location showing map with azimuth and elevation plus other details from your city location.

Track the satellite on the map from your city or location and see movement details for azimuth, elevation, latitude, longitude, range, height, and movement on the map or in text.







IsCatalogInMostPopularTable: catalog: 45120, numindb: 35
Update: records affected: 1



GetName: 45120 2019-071K

Hit Count: updated at: Thu, 09 Jul 2020 01:26:50 GMT